TITAN 3C TRANSTAGE DEB, 5986

Orbit data source: Space-Track

TITAN 3C TRANSTAGE DEB, 5986 is space debris in HEO originally from a launch on Tue, 21 Dec 1965 UTC launched from the Air Force Eastern Test Range (AFETR). Debris objects in space refer to the collection of defunct objects orbiting the Earth. Examples of debris include non-operational satellites, rocket bodies, and fragments generated from explosions, collisions, or faulty payload assembly.

Loading next visibility...
Identifier
5986, 1965-108Q
Orbit
HEO
Country
Flag of USUS
Related business
Manufacturer
Unknown
Mission
Spacecraft
Bus & Motor
Unknown
Mass
Unknown
Launch date (UTC)
1965-12-21 (60 years ago)
Launch vehicle
Unknown
Launch site
Air Force Eastern Test Range (AFETR)
Object type
Payload
Rocket body
Debris
Shape & HBR
Unknown shape, 0.2 m
Radar Cross Section
Medium (>0.1 m² and <1 m²)

Expand to show TLE details & history
Last TLE update: 3 days ago

TLE from 3 days ago
0 TITAN 3C TRANSTAGE DEB
1  5986U 65108Q   25289.35584794  .00008377  00000-0  97494-2 0  9999
2  5986  26.6024 180.8276 6166702 331.1689   5.6452  3.69278319287895
Epoch: 2025-10-16T08:32Z
TLE epoch observation values (Epoch: 2025-10-16T08:32:25.262Z)
Latitude
0.00029°
Longitude
27.59552°
Altitude
736.34 km
Speed
9.461 km/s
True Right ascension
12h 03m 16s
True Declination
0° 00' 01"
Sunlit
Object was in daylight at epoch
Visualization orbit readout
Latitude
Unknown
Longitude
Unknown
Altitude
Unknown
Speed
Unknown
Apparent Right ascension
Unknown
Apparent Declination
Unknown
Sunlit
N/A
Visualization observer readout
Local Sidereal Time
06:17:59
Azimuth
Unknown
Elevation
Unknown
Doppler factor
Unknown
Orbital elements
Apogee altitude
22,211.504 km
Perigee altitude
400.773 km
Semi-major axis
17,684.275 km
Eccentricity
0.61667
Inclination
26.6024°
RAAN
180.8276°
Arg. of periapsis
331.1689°
True anomaly
29.24334°
Mean anomaly
5.6452°
Eccentric anomaly
14.47959°
Mean motion
0.92292 °/min
Orbital period
390.07 mins
BSTAR
0.0097494
Loading maneuver chart data...
Computing Atmospheric mass density...

Documentation

Showing up to 5 results
|